欧洲卫星公司-7 星 (SES-7 (PROTOSTAR 2))

导读

SES 7(原名为PROTOSTAR 2)由SES发射,于北京时间2009年5月16日升空,是一颗商用通信卫星。它定位于地球静止轨道108.2°E,搭载多频段转发器,可覆盖亚太等区域,为广播电视、宽带通信等业务提供传输支持,目前仍承担高清电视频道转播等服务,是亚太区域卫星通信网络的重要组成部分。

基本信息
目录编号:
34941
目录名称:
SES 7 (PROTOSTAR 2)
国际标识:
2009-027A
轨道中心:
EARTH
卫星名称:
欧洲卫星公司-7 星
卫星全名:
欧洲卫星公司-7 星 (SES-7 (PROTOSTAR 2))
卫星状态:
在轨 (已飞行6240 天)
发射日期:
2009-05-16 UTC
国别 :
(SES)
星等 :
--
轨道信息
数据来源 国际轨道数据 AOE轨道数据
星历时间 2026-06-15T14:43:56+0800
1天前
查看轨道信息
2026-06-11T05:00:00+0800
5天前
查看轨道信息
半长轴 42165.121km 42163.971km
偏心率 0.0000521 0.0000818
轨道倾角 0.058° 0.052°
近地点辐角 247.011° 97.230°
升交点赤经 76.317° 73.360°
平近点角 149.486° 151.931°
近地点 35784.787km 35782.384km
远地点 35789.181km 35789.284km
周期 1436.117分钟 1436.058分钟
每日圈数 1.002704 1.002745
详细信息
卫星平台:
Star-2.4
平衡模式:
三轴稳定
覆盖范围:
大西洋
运营商:
欧洲卫星公司
运营商所在国:
卢森堡
制造商(研发单位):
轨道ATK公司
制造商所在国:
美国
使用方式:
暂无
卫星简介
欧洲卫星公司:成立于1985年,总部设在卢森堡。该公司通过运营ASTRA、AMERICOM及 NEW SKIES卫星系统为客户提供电视、广播和多媒体直接到户的信息传送服务,是世界第二大卫星运营商。该卫星仍在工作。
2D轨道图
3D轨道图
轨道高度分析图
轨道倾角分析图
轨道综合分析图
查看轨道综合分析图